Home > Weather > Dachau > Past weeks

Flag for Germany Weather for the Past 2 Weeks in Dachau, Bavaria, Germany

Now
36 °F

Clear.


Feels Like: 36 °F
Forecast: 33 / 46 °F
Wind: 2 mph from Southeast

Location: Oberpfaffenhofen

Current Time: Feb 12, 2016 at 10:50:28 PM

Latest Report: Feb 12, 2016 at 8:20 PM


Visibility: 10 mi

Pressure: 29.36 "Hg (27.59 "Hg at 502m altitude)

Humidity: 70%

Dew point: 27 °F

Location of DachauLocation

Historic Weather in Dachau — Graph

°F

Dachau Temperature Yesterday

Maximum temperature yesterday: 43 °F (at 2:20 PM)
Minimum temperature yesterday: 28 °F (at 7:50 PM)
Average temperature yesterday: 37 °F

High & Low Weather Summary for the Past Weeks

 TemperatureHumidityPressure
High59 °F (Feb 6, 1:20 PM)100% (Jan 29, 6:50 AM)30.45 "Hg (Jan 29, 6:50 AM)
Low28 °F (Feb 11, 7:50 PM)36% (Feb 6, 1:20 PM)29.27 "Hg (Feb 9, 6:20 PM)
Average42 °F74%29.93 "Hg
* Reported Jan 29 6:50 AM — Feb 12 8:20 PM, Dachau, Weather by CustomWeather, © 2016

Note: Actual official high and low records may vary slightly from our data, if they occured in-between our weather recording intervals... More about our weather records

Advertising

Dachau Weather History for the Previous 24 Hours

 ConditionsComfort  
Time TempWeatherWind HumidityBarometerVisibility
8:20 PM
Fri, Feb 12
36 °FClear.2 mph70%29.36 "Hg10 mi
7:50 PM36 °FClear.5 mph70%29.36 "Hg10 mi
7:20 PM36 °FClear.6 mph65%29.36 "Hg10 mi
6:50 PM37 °FClear.9 mph60%29.36 "Hg10 mi
6:20 PM37 °FClear.10 mph60%29.36 "Hg10 mi
5:50 PM37 °FClear.10 mph56%29.36 "Hg10 mi
5:20 PM39 °FSunny.10 mph52%29.36 "Hg10 mi
4:50 PM39 °FSunny.9 mph52%29.39 "Hg10 mi
4:20 PM41 °FSunny.10 mph49%29.39 "Hg10 mi
3:50 PM41 °FSunny.10 mph45%29.42 "Hg10 mi
3:20 PM43 °FSunny.10 mph39%29.45 "Hg10 mi
2:50 PM43 °FPassing clouds.10 mph42%29.45 "HgN/A
2:20 PM43 °FPassing clouds.9 mph42%29.47 "HgN/A
1:50 PM43 °FPassing clouds.9 mph39%29.47 "HgN/A
1:20 PM43 °FSunny.6 mph36%29.50 "Hg10 mi
12:50 PM41 °FPassing clouds.6 mph42%29.53 "HgN/A
12:20 PM41 °FPassing clouds.5 mph49%29.56 "HgN/A
11:50 AM39 °FSunny.7 mph52%29.56 "Hg10 mi
11:20 AM39 °FSunny.5 mph61%29.59 "Hg10 mi
10:50 AM37 °FSunny.6 mph65%29.59 "Hg10 mi
10:20 AM36 °FScattered clouds.1 mph70%29.62 "HgN/A
9:50 AM32 °FScattered clouds.5 mph80%29.62 "HgN/A
9:20 AM30 °FPartly sunny.1 mph80%29.65 "HgN/A
8:50 AM28 °FSunny.2 mph86%29.65 "Hg10 mi
8:20 AM28 °FSunny.3 mph80%29.65 "Hg10 mi
7:50 AM28 °FSunny.3 mph80%29.68 "Hg10 mi
7:20 AM28 °FClear.2 mph80%29.68 "Hg10 mi
6:50 AM28 °FClear.1 mph80%29.68 "Hg10 mi
Weather by CustomWeather, © 2016

See weather overviewHow to use our weather pages